Location: Dos Palmas
(32.4468°N, 116.8732°W)
Time: 00:38:39
(UTC+00:00)

SL-16 R/B - Pass Details

Date: 20 June 2021
Orbit: 842 x 847 km, 71.0° (Epoch: 01 August)

Event Time Altitude Azimuth Distance (km) Brightness Sun altitude
Exits shadow 07:07:28 41° 32° (NNE) 1,214 3.2 -33.2°
Drops below altitude 10° 07:11:03 10° 24° (NNE) 2,466 5.2 -33.4°
Sets 07:13:30 0° 23° (NNE) 3,404 6.1 -33.5°
